Regional Weather Roundup
Issued by NWS

Home | Current Version | Previous Version | Text Only | Print | Product List | Glossary Off
Versions: 1 2 3 4 5 6 7 8 9 10 11 12 13 14 15 16 17 18 19 20 21 22 23 24 25 26 27 28 29 30 31 32 33 34 35 36 37 38 39 40 41 42 43 44 45 46 47 48 49 50

000
ASUS43 KDMX 261706
RWRIA

WEATHER ROUNDUP FOR IOWA
NATIONAL WEATHER SERVICE DES MOINES IA
1200 PM CDT SAT MAY 26 2018

NOTE: "FAIR" INDICATES FEW OR NO CLOUDS BELOW 12,000 FEET WITH NO
SIGNIFICANT WEATHER AND/OR OBSTRUCTIONS TO VISIBILITY.

* - THESE STATIONS ARE NOT NWS STATIONS...THUS NOT UNDER NWS
QUALITY CONTROL.  THEY ALSO DO NOT REPORT WEATHER SUCH
AS PRECIPITATION OR FOG.

IAZ001>003-012>014-020>022-031>034-043>046-261800-
   NORTHWEST IOWA

CITY           SKY/WX    TMP DP  RH WIND       PRES   REMARKS
CARROLL *      SUNNY     93  50  22 W12       29.78S HX  90
CHEROKEE *     SUNNY     87  55  33 NW13      29.79F HX  86
DENISON *      SUNNY     91  57  31 NW12      29.81S HX  90
LE MARS *      SUNNY     93  50  22 VRB7G16   29.79S HX  90
ORANGE CITY *  SUNNY     90  54  29 W10       29.80F HX  87
SHELDON *      SUNNY     91  50  24 W14G23    29.78F HX  88
SIOUX CITY     SUNNY     91  57  31 NE7       29.79F HX  89
SPENCER        SUNNY     91  54  28 NW14G22   29.79S HX  89
STORM LAKE *   SUNNY     90  52  27 N13       29.80F HX  87
$$

IAZ055>058-069>071-079>083-090>094-261800-
   SOUTHWEST IOWA

CITY           SKY/WX    TMP DP  RH WIND       PRES   REMARKS
ATLANTIC *     SUNNY     93  55  27 N9        29.78F HX  91
AUDUBON *      SUNNY     91  52  25 N9        29.81S HX  89
CLARINDA *     SUNNY     91  64  40 CALM      29.81S HX  93
COUNCIL BLFS * SUNNY     91  63  38 VRB3      29.79F HX  92
CRESTON *      SUNNY     91  59  33 CALM      29.81S HX  90
HARLAN  *      SUNNY     93  55  27 CALM      29.82F HX  91
LAMONI         SUNNY     86  71  60 SE5       29.80S HX  91
RED OAK *      SUNNY     91  64  40 NE3       29.78F HX  93
SHENANDOAH *   SUNNY     91  64  40 VRB3      29.79S HX  93
$$

IAZ047>049-059>061-072>074-084-261800-
   CENTRAL IOWA

CITY           SKY/WX    TMP DP  RH WIND       PRES   REMARKS
AMES           SUNNY     88  68  51 VRB3      29.77F HX  91
ANKENY *       SUNNY     88  68  51 CALM      29.78F HX  91
BOONE *        SUNNY     90  63  40 CALM      29.78S HX  90
CHARITON *     SUNNY     86  70  58 CALM      29.79S HX  90
DES MOINES     SUNNY     89  66  46 CALM      29.77S HX  91
GRINNELL*      SUNNY     85  66  52 CALM      29.79S HX  87
KNOXVILLE *    SUNNY     86  68  54 S5        29.77F HX  89
MARSHALLTOWN   SUNNY     87  68  52 CALM      29.77S HX  90
NEWTON *       SUNNY     88  66  48 VRB6      29.78S HX  90
PELLA *        SUNNY     86  68  55 SW5       29.80R HX  89
PERRY *        FAIR      90  49  24 NW8       29.78F HX  87
$$

IAZ004>006-015-016-023>025-035-036-261800-
   NORTH CENTRAL IOWA

CITY           SKY/WX    TMP DP  RH WIND       PRES   REMARKS
ALGONA *       SUNNY     88  57  35 NW9       29.78S HX  86
CLARION *      SUNNY     91  55  29 W8        29.78S HX  89
ESTHERVILLE    SUNNY     87  56  34 NW17      29.78S HX  85
FORT DODGE *   MOSUNNY   90  60  36 W7        29.78F HX  89
MASON CITY     SUNNY     88  65  46 SW10      29.78S HX  90
FOREST CITY *  FAIR      88  61  40 W9        29.78S HX  88
WEBSTER CITY * SUNNY     93  55  27 W12       29.76S HX  91
IOWA FALLS *   FAIR      88  67  49 NW3       29.79S HX  90
$$

IAZ007>011-017>019-026>030-037>042-050>054-066-261800-
   NORTHEAST IOWA

CITY           SKY/WX    TMP DP  RH WIND       PRES   REMARKS
CEDAR RAPIDS   FAIR      82  70  66 CALM      29.78S HX  86
CHARLES CITY * FAIR      82  68  61 SW6       29.79S HX  85
CLINTON *        N/A     82  68  62 SW6       29.81S HX  85
DECORAH *      FAIR      81  70  69 VRB3      29.77F HX  84
DUBUQUE        FAIR      81  68  64 W3        29.80F HX  84
MONTICELLO *   FAIR      82  68  61 CALM      29.78F HX  85
OELWEIN *      FAIR      82  68  61 VRB3      29.79S HX  85
WATERLOO       FAIR      85  70  60 SW5       29.77S HX  89
$$

IAZ064-065-067-068-078-261800-
   EAST CENTRAL IOWA

CITY           SKY/WX    TMP DP  RH WIND       PRES   REMARKS
DAVENPORT      FAIR      83  67  58 MISG      29.81S HX  85
IOWA CITY      FAIR      83  70  64 CALM      29.79F HX  87
MT. PLEASANT * SUNNY     82  68  61 SW5       29.78F HX  85
MUSCATINE *    FAIR      84  70  61 W6        29.78S HX  88
QUAD CITIES    FAIR      85  69  58 VRB5      29.78S HX  89
$$

IAZ062-063-075>077-085>089-095>099-261800-
   SOUTHEAST IOWA

CITY           SKY/WX    TMP DP  RH WIND       PRES   REMARKS
BURLINGTON     SUNNY     85  72  65 MISG      29.78S HX  91
FAIRFIELD *    SUNNY     84  70  61 W6        29.78F HX  88
FORT MADISON * SUNNY     88  73  62 W5        29.79S HX  96
KEOKUK *       SUNNY     86  72  62 SW10      29.78S HX  92
OSKALOOSA *    FAIR      84  69  59 S6        29.79S HX  88
CENTERVILLE *    N/A     86  72  62 CALM      29.81F HX  92
OTTUMWA        SUNNY     85  72  65 S7        29.78F HX  91
WASHINGTON *   SUNNY     84  73  70 CALM      29.80S HX  91
$$

ABBREVIATIONS USED IN REMARKS
   TC - TEMPERATURES IN CELSIUS
  WCI - WIND CHILL INDEX
   HX - HEAT INDEX
  VSB - VISIBILITY
$$




USA.gov is the U.S. government's official web portal to all federal, state and local government web resources and services.